Norfolk, NE

4:50 AM CST on December 07, 2016 (GMT -0600)
Stefan Memorial

Weather History for KOFK - July, 2013

Change the Weather History Date:

Tuesday, July 16, 2013

  Actual Average Record
Temperature  
Mean Temperature 76 °F 75 °F  
Max Temperature 88 °F 87 °F 112 °F (1936)
Min Temperature 63 °F 64 °F 47 °F (2014)
Degree Days  
Heating Degree Days 0 0  
Month to date heating degree days 0 0  
Since 1 June heating degree days 42 30  
Since 1 July heating degree days 0 0  
Cooling Degree Days 11 10  
Month to date cooling degree days 175 158  
Year to date cooling degree days 422 405  
Since 1 June cooling degree days 358 344  
Growing Degree Days 26 (Base 50)    
Moisture  
Dew Point 63 °F    
Average Humidity 72    
Maximum Humidity 100    
Minimum Humidity 43    
Precipitation  
Precipitation 0.00 in 0.10 in 1.22 in (1900)
Month to date precipitation 0.53 1.78  
Year to date precipitation 14.13 15.74  
Snow  
Snow 0.00 in 0.00 in - ()
Month to date snowfall 0.0 0.0  
Since 1 July snowfall 0.0 0.0  
Snow Depth 0.00 in    
Sea Level Pressure  
Sea Level Pressure 30.19 in    
Wind  
Wind Speed 10 mph (South)    
Max Wind Speed 22 mph    
Max Gust Speed 30 mph    
Visibility 9 miles    
Events      
T = Trace of Precipitation, MM = Missing Value Source: NWS Daily Summary

Daily Weather History Graph

Daily Weather History Graph

Search for Another Location

Airport or City:

Trip Planner

Search our weather history database for the weather conditions in past years. The results will help you decide how hot, cold, wet, or windy it might be!

Date:

Astronomy

Jul. 16, 2013 Rise Set
Actual Time 6:08 AM CDT 9:02 PM CDT
Civil Twilight 5:35 AM CDT 9:35 PM CDT
Nautical Twilight 4:53 AM CDT 10:17 PM CDT
Astronomical Twilight 4:04 AM CDT 11:06 PM CDT
Moon 2:43 PM CDT (7/16) 12:42 AM CDT (7/16)
Length of Visible Light 16h 00m
Length of Day
14h 54m
First Quarter, 56% of the Moon is Illuminated
Jul 16
First Quarter
Jul 22
Full
Jul 29
Last Quarter
Aug 6
New
Aug 14
First Quarter

Hourly Weather History & Observations

Time (CDT) Temp. Heat Index Dew Point Humidity Pressure Visibility Wind Dir Wind Speed Gust Speed Precip Events Conditions
12:56 AM 72.0 °F - 66.0 °F 81% 30.14 in 10.0 mi SSE 8.1 mph - N/A   Clear
1:56 AM 72.0 °F - 64.9 °F 78% 30.14 in 10.0 mi South 9.2 mph - N/A   Clear
2:56 AM 70.0 °F - 64.9 °F 84% 30.15 in 10.0 mi South 4.6 mph - N/A   Clear
3:56 AM 66.9 °F - 64.0 °F 90% 30.16 in 7.0 mi South 5.8 mph - N/A   Clear
4:56 AM 64.9 °F - 63.0 °F 93% 30.16 in 6.0 mi SSE 5.8 mph - N/A   Clear
5:56 AM 63.0 °F - 62.1 °F 97% 30.17 in 3.0 mi Calm Calm - N/A   Clear
6:09 AM 62.6 °F - 62.6 °F 100% 30.20 in 2.5 mi Calm Calm - N/A   Clear
6:56 AM 64.0 °F - 62.1 °F 93% 30.19 in 3.0 mi South 4.6 mph - N/A   Clear
7:56 AM 70.0 °F - 63.0 °F 78% 30.21 in 10.0 mi South 8.1 mph - N/A   Clear
8:56 AM 73.9 °F - 62.1 °F 66% 30.21 in 10.0 mi SSW 9.2 mph - N/A   Clear
9:56 AM 77.0 °F - 62.1 °F 60% 30.22 in 10.0 mi SSW 11.5 mph - N/A   Clear
10:56 AM 79.0 °F - 62.1 °F 56% 30.23 in 10.0 mi SSW 15.0 mph - N/A   Clear
11:56 AM 82.0 °F 83.1 °F 63.0 °F 52% 30.23 in 10.0 mi SSW 12.7 mph - N/A   Clear
12:56 PM 84.0 °F 84.9 °F 63.0 °F 49% 30.22 in 10.0 mi South 13.8 mph 29.9 mph N/A   Clear
1:56 PM 87.1 °F 87.5 °F 62.1 °F 43% 30.21 in 10.0 mi South 17.3 mph 25.3 mph N/A   Clear
2:56 PM 87.1 °F 87.5 °F 62.1 °F 43% 30.20 in 10.0 mi South 17.3 mph 21.9 mph N/A   Scattered Clouds
3:56 PM 87.1 °F 87.8 °F 63.0 °F 44% 30.20 in 10.0 mi SSW 15.0 mph 21.9 mph N/A   Scattered Clouds
4:56 PM 87.1 °F 87.8 °F 63.0 °F 44% 30.19 in 10.0 mi SSW 15.0 mph - N/A   Scattered Clouds
5:56 PM 86.0 °F 86.3 °F 62.1 °F 44% 30.20 in 10.0 mi SSE 13.8 mph - N/A   Clear
6:56 PM 86.0 °F 86.3 °F 62.1 °F 44% 30.19 in 10.0 mi South 9.2 mph - N/A   Clear
7:56 PM 84.0 °F 84.9 °F 63.0 °F 49% 30.19 in 10.0 mi South 9.2 mph - N/A   Clear
8:56 PM 79.0 °F - 64.0 °F 60% 30.20 in 10.0 mi SSE 6.9 mph - N/A   Clear
9:56 PM 75.0 °F - 64.9 °F 71% 30.22 in 10.0 mi SSE 8.1 mph - N/A   Clear
10:56 PM 73.9 °F - 64.0 °F 71% 30.22 in 10.0 mi South 8.1 mph - N/A   Clear
11:56 PM 72.0 °F - 64.0 °F 76% 30.23 in 10.0 mi South 5.8 mph - N/A   Clear